This is the latest recevied weather packets stored in our database for station/object VK6JI-11. If no packets are shown the sender has not sent any weather packets the latest 10 day(s).
| Time | Temp. | Humidity | Pressure | Rain* | Wind** | Luminosity | Snow |
|---|---|---|---|---|---|---|---|
| 1778290593 | 18.89° C | 52% | 1027.1 hPa | 0 mm | - | 440 W/m² | - |
| 1778290473 | 18.89° C | 53% | 1027.1 hPa | 0 mm | - | 433 W/m² | - |
| 1778290352 | 18.33° C | 53% | 1027.1 hPa | 0 mm | - | 429 W/m² | - |
| 1778290230 | 18.33° C | 53% | 1027.2 hPa | 0 mm | - | 424 W/m² | - |
| 1778290110 | 18.33° C | 54% | 1027.2 hPa | 0 mm | - | 418 W/m² | - |
| 1778289990 | 18.33° C | 54% | 1027.2 hPa | 0 mm | - | 415 W/m² | - |
| 1778289866 | 18.33° C | 54% | 1027.2 hPa | 0 mm | - | 408 W/m² | - |
| 1778289746 | 18.33° C | 54% | 1027.2 hPa | 0 mm | - | 403 W/m² | - |
| 1778289625 | 18.33° C | 54% | 1027.2 hPa | 0 mm | - | 397 W/m² | - |
| 1778289506 | 17.78° C | 54% | 1027.2 hPa | 0 mm | - | 392 W/m² | - |
| 1778289385 | 17.78° C | 55% | 1027.3 hPa | 0 mm | - | 387 W/m² | - |
| 1778289264 | 17.78° C | 56% | 1027.2 hPa | 0 mm | - | 382 W/m² | - |
| 1778289143 | 17.78° C | 57% | 1027.4 hPa | 0 mm | - | 375 W/m² | - |
| 1778289023 | 17.22° C | 57% | 1027.4 hPa | 0 mm | - | 369 W/m² | - |
| 1778288903 | 17.22° C | 58% | 1027.3 hPa | 0 mm | - | 360 W/m² | - |
| 1778288782 | 17.22° C | 58% | 1027.4 hPa | 0 mm | - | 353 W/m² | - |
| 1778288662 | 16.67° C | 58% | 1027.5 hPa | 0 mm | - | 348 W/m² | - |
| 1778288541 | 16.67° C | 58% | 1027.5 hPa | 0 mm | - | 343 W/m² | - |
| 1778288422 | 16.67° C | 60% | 1027.5 hPa | 0 mm | - | 334 W/m² | - |
| 1778288294 | 16.11° C | 59% | 1027.5 hPa | 0 mm | - | 195 W/m² | - |
| 1778288174 | 16.11° C | 60% | 1027.5 hPa | 0 mm | - | 320 W/m² | - |
| 1778288054 | 16.11° C | 60% | 1027.5 hPa | 0 mm | - | 246 W/m² | - |
| 1778287933 | 16.11° C | 60% | 1027.5 hPa | 0 mm | - | 67 W/m² | - |
| 1778287810 | 16.11° C | 61% | 1027.4 hPa | 0 mm | - | 83 W/m² | - |
| 1778287689 | 15.56° C | 61% | 1027.5 hPa | 0 mm | - | 90 W/m² | - |
* Rain latest hour (hover to see other rain measurements)
** Current wind speed in m/s (hover to see current wind gust speed)